Location: Bucquoy
(50.1391°N, 2.7097°E)
Time: 08:43:23
(UTC+00:00)

Cosmos 2263 Rocket - Pass Details

Date: 06 May 2021
Orbit: 822 x 850 km, 71.0° (Epoch: 21 June)

Event Time Altitude Azimuth Distance (km) Brightness Sun altitude
Rises 03:19:47 0° 333° (NNW) 3,389 5.5 -8.4°
Reaches altitude 10° 03:22:25 10° 342° (NNW) 2,456 4.9 -8.1°
Maximum altitude 03:27:37 37° 49° (NE) 1,295 4.0 -7.4°
Drops below altitude 10° 03:32:49 10° 116° (ESE) 2,461 5.0 -6.8°
Sets 03:35:27 0° 124° (SE) 3,396 5.6 -6.4°
